SWARM A (39452 NORAD) Tracking and Keplerian Element Data

This shows tracking and keplerian element data for the satellite.

Feedback or suggestion? Click here.




ElementValue
Catalog39452
NameSWARM A
Epoch Orbit59243
Epoch Day160.19447884
Epoch Year2024
RAAN326.3433
Inclination87.3417
Eccentricity0.0003229
Argument of Perigee98.178
Mean Anonmoly261.9838
Mean Motion15.32372141
Decay Rate0.00010536
L11 39452U 13067B 24160.19447884 .00010536 00000+0 33609-3 0 9996
L22 39452 87.3417 326.3433 0003229 98.1780 261.9838 15.32372141592437



Live tracking and technical data element details for SWARM A (NORAD 39452). SWARM A can be tracked NOW for your location showing map with azimuth and elevation plus other details from your city location.







IsCatalogInMostPopularTable: catalog: 39452, numindb: 695
Update: records affected: 1



GetName: 39452 SWARM A

Hit Count: updated at: Mon, 17 Jun 2024 23:32:30 GMT